EW0585 Weather Reports


time (UTC)temp
F
wind
direction
speed
knots
gust
knots
rain 1hr
in
rain 24hr
in
rain mn
in
humidity
%
barometer
mb
20260507023048 57 281 0.0 1.7 0.00 0.00 0.00 36 1011.5
20260507021541 57 11 0.0 0.0 0.00 0.00 0.00 35 1011.6
20260507020049 59 12 0.0 0.0 0.00 0.00 0.00 32 1011.5
20260507014540 60 13 0.0 1.7 0.00 0.00 0.00 31 1011.7
20260507013039 61 33 0.0 0.0 0.00 0.00 0.00 30 1011.6
20260507011545 62 31 0.0 0.0 0.00 0.00 0.00 29 1011.5
20260507010038 62 33 0.0 4.3 0.00 0.00 0.00 28 1011.6
20260507004539 62 13 0.0 5.2 0.00 0.00 0.00 29 1011.8
20260507003036 62 25 0.9 7.0 0.00 0.00 0.00 30 1011.8
20260507001604 62 30 1.7 5.2 0.00 0.00 0.00 29 1011.8
20260507000041 62 12 0.0 7.0 0.00 0.00 0.00 31 1011.8
20260506234534 62 11 0.0 6.1 0.00 0.00 0.00 31 1011.8
20260506233034 62 69 0.0 6.1 0.00 0.00 0.00 30 1011.8
20260506231532 62 14 1.7 6.1 0.00 0.00 0.00 31 1011.9
20260506230049 62 15 1.7 6.1 0.00 0.00 0.00 35 1012.1
20260506224531 62 17 0.0 6.1 0.00 0.00 0.00 35 1012.2
20260506223033 63 33 0.0 7.8 0.00 0.00 0.00 37 1012.4
20260506221530 61 17 0.0 7.0 0.00 0.00 0.00 39 1012.5
20260506220034 61 29 0.0 7.0 0.00 0.00 0.00 38 1012.6
20260506214528 62 33 2.6 8.7 0.00 0.00 0.00 37 1012.9
20260506213027 63 360 0.0 1.7 0.00 0.00 0.00 37 1012.9
20260506211524 62 12 0.0 5.2 0.00 0.00 0.00 37 1013.1
20260506210044 61 15 0.0 7.0 0.00 0.00 0.00 38 1013.3
20260506204521 60 15 0.0 8.7 0.00 0.00 0.00 41 1013.3
20260506203021 60 22 0.9 7.8 0.00 0.00 0.00 40 1013.4
20260506201522 60 5 0.0 4.3 0.00 0.00 0.00 38 1013.6
20260506200020 60 15 2.6 6.1 0.00 0.00 0.00 39 1013.6
20260506194518 60 59 1.7 4.3 0.00 0.00 0.00 39 1013.7
20260506193025 60 92 0.0 5.2 0.00 0.00 0.00 39 1013.7
20260506191516 59 31 0.0 9.6 0.00 0.00 0.00 40 1013.8
20260506190016 60 103 0.0 6.1 0.00 0.00 0.00 39 1013.9
20260506184514 60 24 0.0 5.2 0.00 0.00 0.00 41 1013.9
20260506183014 60 29 0.9 4.3 0.00 0.00 0.00 40 1014.0
20260506181512 59 355 0.0 4.3 0.00 0.00 0.00 42 1014.2
20260506180011 58 253 0.0 5.2 0.00 0.00 0.00 41 1014.1
20260506174510 58 324 0.9 5.2 0.00 0.00 0.00 41 1014.1
20260506173009 59 348 0.0 8.7 0.00 0.00 0.00 41 1014.0
20260506171509 58 350 0.0 4.3 0.00 0.00 0.00 41 1014.0
20260506170007 58 350 0.9 5.2 0.00 0.00 0.00 41 1014.0
20260506164522 58 24 0.0 0.9 0.00 0.00 0.00 40 1013.9
20260506163009 57 24 0.0 2.6 0.00 0.00 0.00 44 1013.7
20260506161504 57 24 0.0 4.3 0.00 0.00 0.00 46 1013.8
20260506160002 57 26 0.0 1.7 0.00 0.00 0.00 42 1013.7
20260506154559 56 204 0.0 0.0 0.00 0.00 0.00 40 1013.6
20260506153054 55 96 0.0 1.7 0.00 0.00 0.00 41 1013.5
20260506151554 54 109 0.0 2.6 0.00 0.00 0.00 44 1013.5
20260506150059 52 140 0.0 0.0 0.00 0.00 0.00 44 1013.5
20260506144542 50 123 0.0 0.0 0.00 0.00 0.00 50 1013.4
20260506143040 49 123 0.0 0.0 0.00 0.00 0.00 54 1013.4
20260506141541 46 135 0.0 0.0 0.00 0.00 0.00 55 1013.4
20260506140030 44 131 0.0 0.0 0.00 0.00 0.00 56 1013.3
20260506134525 42 131 0.0 0.0 0.00 0.00 0.00 59 1013.2
20260506133024 41 131 0.0 0.0 0.00 0.00 0.00 61 1013.0
20260506131519 41 131 0.0 0.0 0.00 0.00 0.00 60 1012.8
20260506130020 41 136 0.0 0.0 0.00 0.00 0.00 59 1012.6
20260506124515 40 136 0.0 0.0 0.00 0.00 0.00 59 1012.5
20260506123015 40 136 0.0 0.0 0.00 0.00 0.00 59 1012.4
20260506121514 40 136 0.0 0.0 0.00 0.00 0.00 58 1012.4
20260506120020 40 136 0.0 0.0 0.00 0.00 0.00 53 1012.2
20260506114509 39 136 0.0 0.0 0.00 0.00 0.00 54 1012.1
20260506113007 39 136 0.0 0.0 0.00 0.00 0.00 53 1012.0
20260506111505 39 136 0.0 0.0 0.00 0.00 0.00 55 1011.9
20260506110006 38 136 0.0 0.0 0.00 0.00 0.00 57 1011.9
20260506104501 38 136 0.0 0.0 0.00 0.00 0.00 58 1011.8
20260506103059 37 136 0.0 0.0 0.00 0.00 0.00 64 1011.8
20260506101558 37 136 0.0 0.0 0.00 0.00 0.00 66 1011.6
20260506100111 37 136 0.0 0.0 0.00 0.00 0.00 66 1011.5
20260506094602 37 136 0.0 0.0 0.00 0.00 0.00 69 1011.5
20260506093058 37 136 0.0 0.0 0.00 0.00 0.00 69 1011.4
20260506091555 37 136 0.0 0.0 0.00 0.00 0.00 70 1011.5
20260506090057 37 136 0.0 0.0 0.00 0.00 0.00 69 1011.5
20260506084618 37 136 0.0 0.0 0.00 0.00 0.00 69 1011.5
20260506083052 37 136 0.0 0.0 0.00 0.00 0.00 69 1011.6
20260506081556 37 136 0.0 0.0 0.00 0.00 0.00 71 1011.6
20260506073047 37 136 0.0 0.0 0.00 0.00 0.00 74 1011.5
20260506071543 36 136 0.0 0.0 0.00 0.00 0.00 77 1011.6
20260506061537 35 136 0.0 0.0 0.00 0.00 0.00 80 1011.1
20260506044534 37 119 0.0 0.0 0.00 0.00 0.00 79 1010.3
20260506043025 37 119 0.0 0.0 0.00 0.00 0.00 80 1010.2
20260506041522 37 119 0.0 0.0 0.00 0.00 0.00 80 1009.7
20260506040025 38 119 0.0 0.0 0.00 0.00 0.00 80 1009.5
20260506034522 38 119 0.0 0.0 0.00 0.00 0.00 80 1009.4
20260506033020 39 119 0.0 0.0 0.00 0.00 0.00 79 1009.4
20260506031519 40 119 0.0 0.0 0.00 0.00 0.00 78 1009.2
20260506030018 41 119 0.0 0.0 0.00 0.00 0.00 77 1009.0
20260506024516 42 119 0.0 0.0 0.00 0.00 0.00 75 1008.8